CZ-3A R/B (43540 NORAD) Tracking and Keplerian Element Data

This shows tracking and keplerian element data for the satellite.

Feedback or suggestion? Click here.




ElementValue
Catalog43540
NameCZ-3A R/B
Epoch Orbit71
Epoch Day218.47994398
Epoch Year2018
RAAN182.6813
Inclination55.0757
Eccentricity0.7271367
Argument of Perigee178.8495
Mean Anonmoly185.2566
Mean Motion2.30211465
Decay Rate2.456E-05
L11 43540U 18057B 18218.47994398 .00002456 00000-0 44782-3 0 9995
L22 43540 55.0757 182.6813 7271367 178.8495 185.2566 2.30211465 716

Live tracking and technical data element details for CZ-3A R/B (NORAD 43540). CZ-3A R/B can be tracked NOW for your location showing map with azimuth and elevation plus other details from your city location.

Track the satellite on the map from your city or location and see movement details for azimuth, elevation, latitude, longitude, range, height, and movement on the map or in text.







IsCatalogInMostPopularTable: catalog: 43540, numindb: 51
Update: records affected: 1



GetName: 43540 CZ-3A R/B

Hit Count: updated at: Sat, 17 Nov 2018 04:11:17 GMT